Weather History for KLVN - November, 2011

Change the Weather History Date:

Wednesday, November 9, 2011

  Actual Average Record
Temperature  
Mean Temperature 40 °F -  
Max Temperature 46 °F 42 °F 71 °F (1999)
Min Temperature 35 °F 28 °F 10 °F (1973)
Degree Days  
Heating Degree Days 24    
Moisture  
Dew Point 24 °F    
Average Humidity 54    
Maximum Humidity 60    
Minimum Humidity 37    
Precipitation  
Precipitation 0.00 in - - ()
Sea Level Pressure  
Sea Level Pressure 30.02 in    
Wind  
Wind Speed 9 mph (NW)    
Max Wind Speed 23 mph    
Max Gust Speed 33 mph    
Visibility 10 miles    
Events      
Averages and records for this station are not official NWS values.
T = Trace of Precipitation, MM = Missing Value Source: NWS Daily Summary

Daily Weather History Graph

Daily Weather History Graph

Search for Another Location

Airport or City:

Trip Planner

Search our weather history database for the weather conditions in past years. The results will help you decide how hot, cold, wet, or windy it might be!

Date:

Astronomy

Nov. 09, 2011 Rise Set
Actual Time 7:01 AM CST 4:51 PM CST
Civil Twilight 6:30 AM CST 5:22 PM CST
Nautical Twilight 5:55 AM CST 5:57 PM CST
Astronomical Twilight 5:20 AM CST 6:31 PM CST
Moon 4:03 PM CST (11/9) 5:57 AM CST (11/9)
Length of Visible Light 10h 52m
Length of Day
9h 50m
Waxing Gibbous, 99% of the Moon is Illuminated
Nov 9
Waxing Gibbous
Nov 10
Full
Nov 18
Last Quarter
Nov 25
New
Dec 2
First Quarter

Hourly Weather History & Observations

Time (CST) Temp. Windchill Dew Point Humidity Pressure Visibility Wind Dir Wind Speed Gust Speed Precip Events Conditions
12:11 AM 39.2 °F 35.0 °F 24.8 °F 56% 30.11 in 10.0 mi North 5.8 mph - N/A   Clear
12:31 AM 39.2 °F 35.9 °F 24.8 °F 56% 30.11 in 10.0 mi North 4.6 mph - N/A   Clear
12:52 AM 39.2 °F 35.9 °F 24.8 °F 56% 30.10 in 10.0 mi North 4.6 mph - N/A   Clear
1:11 AM 37.4 °F 32.8 °F 24.8 °F 60% 30.10 in 10.0 mi NNW 5.8 mph - N/A   Clear
1:31 AM 37.4 °F 31.4 °F 24.8 °F 60% 30.09 in 10.0 mi NNW 8.1 mph - N/A   Clear
1:52 AM 37.4 °F 31.4 °F 24.8 °F 60% 30.09 in 10.0 mi NNW 8.1 mph - N/A   Clear
2:11 AM 37.4 °F 32.1 °F 24.8 °F 60% 30.09 in 10.0 mi North 6.9 mph - N/A   Clear
2:31 AM 37.4 °F 32.1 °F 24.8 °F 60% 30.08 in 10.0 mi NNW 6.9 mph - N/A   Clear
2:52 AM 37.4 °F 32.1 °F 24.8 °F 60% 30.08 in 10.0 mi North 6.9 mph - N/A   Clear
3:11 AM 37.4 °F 32.1 °F 24.8 °F 60% 30.07 in 10.0 mi North 6.9 mph - N/A   Clear
3:31 AM 37.4 °F 32.8 °F 24.8 °F 60% 30.07 in 10.0 mi North 5.8 mph - N/A   Clear
3:52 AM 37.4 °F 31.4 °F 24.8 °F 60% 30.06 in 10.0 mi North 8.1 mph - N/A   Clear
4:11 AM 37.4 °F 31.4 °F 24.8 °F 60% 30.06 in 10.0 mi North 8.1 mph - N/A   Clear
4:31 AM 37.4 °F 32.1 °F 23.0 °F 56% 30.05 in 10.0 mi North 6.9 mph - N/A   Clear
5:11 AM 37.4 °F 32.1 °F 23.0 °F 56% 30.06 in 10.0 mi NNW 6.9 mph - N/A   Clear
5:31 AM 37.4 °F 32.8 °F 23.0 °F 56% 30.06 in 10.0 mi NNW 5.8 mph - N/A   Clear
5:52 AM 35.6 °F 32.8 °F 23.0 °F 60% 30.08 in 10.0 mi North 3.5 mph - N/A   Clear
6:11 AM 35.6 °F - 23.0 °F 60% 30.07 in 10.0 mi Calm Calm - N/A   Clear
6:31 AM 35.6 °F 31.7 °F 23.0 °F 60% 30.07 in 10.0 mi North 4.6 mph - N/A   Clear
6:52 AM 35.6 °F 30.7 °F 23.0 °F 60% 30.06 in 10.0 mi NNW 5.8 mph - N/A   Clear
7:11 AM 35.6 °F 30.7 °F 23.0 °F 60% 30.05 in 10.0 mi NNW 5.8 mph - N/A   Clear
7:31 AM 35.6 °F 28.6 °F 23.0 °F 60% 30.03 in 10.0 mi North 9.2 mph - N/A   Clear
7:52 AM 35.6 °F 29.9 °F 23.0 °F 60% 30.02 in 10.0 mi NNW 6.9 mph - N/A   Clear
8:11 AM 37.4 °F 33.8 °F 23.0 °F 56% 30.03 in 10.0 mi North 4.6 mph - N/A   Clear
8:31 AM 37.4 °F 33.8 °F 24.8 °F 60% 30.05 in 10.0 mi NNE 4.6 mph - N/A   Clear
8:52 AM 37.4 °F 33.8 °F 23.0 °F 56% 30.04 in 10.0 mi North 4.6 mph - N/A   Clear
9:11 AM 37.4 °F 32.1 °F 24.8 °F 60% 30.04 in 10.0 mi NNW 6.9 mph - N/A   Clear
9:31 AM 37.4 °F 32.8 °F 24.8 °F 60% 30.04 in 10.0 mi NNW 5.8 mph - N/A   Clear
9:52 AM 39.2 °F 34.2 °F 24.8 °F 56% 30.04 in 10.0 mi NNW 6.9 mph - N/A   Clear
10:11 AM 39.2 °F 33.0 °F 24.8 °F 56% 30.03 in 10.0 mi NNW 9.2 mph - N/A   Clear
10:31 AM 39.2 °F 33.0 °F 24.8 °F 56% 30.02 in 10.0 mi NW 9.2 mph - N/A   Clear
10:52 AM 41.0 °F 34.7 °F 24.8 °F 53% 30.01 in 10.0 mi NW 10.4 mph - N/A   Clear
11:11 AM 42.8 °F 37.5 °F 24.8 °F 49% 30.00 in 10.0 mi NW 9.2 mph - N/A   Clear
11:31 AM 42.8 °F 36.2 °F 24.8 °F 49% 29.99 in 10.0 mi NW 12.7 mph - N/A   Clear
12:11 PM 44.6 °F 38.4 °F 24.8 °F 46% 29.98 in 10.0 mi NW 12.7 mph 19.6 mph N/A   Clear
12:31 PM 44.6 °F 36.9 °F 24.8 °F 46% 29.97 in 10.0 mi WNW 18.4 mph 25.3 mph N/A   Clear
12:52 PM 46.4 °F 39.8 °F 24.8 °F 43% 29.96 in 10.0 mi NW 16.1 mph 21.9 mph N/A   Clear
1:11 PM 46.4 °F 38.7 °F 24.8 °F 43% 29.96 in 10.0 mi NW 20.7 mph 26.5 mph N/A   Clear
1:31 PM 46.4 °F 38.3 °F 24.8 °F 43% 29.96 in 10.0 mi WNW 23.0 mph - N/A   Clear
1:52 PM 46.4 °F 38.7 °F 23.0 °F 40% 29.95 in 10.0 mi NW 20.7 mph 25.3 mph N/A   Clear
2:32 PM 46.4 °F 39.0 °F 21.2 °F 37% 29.95 in 10.0 mi WNW 19.6 mph 26.5 mph N/A   Clear
2:51 PM 46.4 °F 39.0 °F 23.0 °F 40% 29.95 in 10.0 mi NW 19.6 mph 26.5 mph N/A   Clear
3:11 PM 46.4 °F 39.0 °F 23.0 °F 40% 29.95 in 10.0 mi NW 19.6 mph 27.6 mph N/A   Clear
3:32 PM 44.6 °F 37.2 °F 24.8 °F 46% 29.95 in 10.0 mi WNW 17.3 mph 25.3 mph N/A   Clear
3:52 PM 44.6 °F 37.2 °F 23.0 °F 43% 29.96 in 10.0 mi WNW 17.3 mph - N/A   Clear
4:11 PM 42.8 °F 35.1 °F 24.8 °F 49% 29.97 in 10.0 mi WNW 16.1 mph 27.6 mph N/A   Clear
4:32 PM 41.0 °F 31.4 °F 24.8 °F 53% 29.97 in 10.0 mi WNW 21.9 mph 26.5 mph N/A   Clear
4:51 PM 39.2 °F 29.8 °F 23.0 °F 52% 29.98 in 10.0 mi WNW 18.4 mph 26.5 mph N/A   Clear
5:11 PM 39.2 °F 29.8 °F 23.0 °F 52% 29.98 in 10.0 mi WNW 18.4 mph - N/A   Clear
5:31 PM 37.4 °F 26.6 °F 23.0 °F 56% 29.99 in 10.0 mi WNW 21.9 mph 32.2 mph N/A   Clear
5:52 PM 37.4 °F 26.4 °F 21.2 °F 52% 29.98 in 10.0 mi WNW 23.0 mph 33.4 mph N/A   Clear
6:11 PM 37.4 °F 28.9 °F 21.2 °F 52% 29.99 in 10.0 mi WNW 13.8 mph 24.2 mph N/A   Clear
6:31 PM 37.4 °F 28.2 °F 23.0 °F 56% 29.99 in 10.0 mi WNW 16.1 mph 23.0 mph N/A   Clear
6:51 PM 37.4 °F 28.2 °F 21.2 °F 52% 29.98 in 10.0 mi WNW 16.1 mph 23.0 mph N/A   Scattered Clouds
7:11 PM 37.4 °F 26.6 °F 21.2 °F 52% 29.98 in 10.0 mi WNW 21.9 mph 26.5 mph N/A   Mostly Cloudy
7:31 PM 37.4 °F 27.5 °F 21.2 °F 52% 29.98 in 10.0 mi WNW 18.4 mph 24.2 mph N/A   Overcast
7:51 PM 37.4 °F 27.2 °F 21.2 °F 52% 29.98 in 10.0 mi WNW 19.6 mph 25.3 mph N/A   Overcast
8:12 PM 37.4 °F 27.5 °F 21.2 °F 52% 29.98 in 10.0 mi West 18.4 mph 27.6 mph N/A   Overcast
8:32 PM 37.4 °F 27.8 °F 21.2 °F 52% 29.98 in 10.0 mi West 17.3 mph 21.9 mph N/A   Overcast
8:51 PM 37.4 °F 28.5 °F 21.2 °F 52% 29.98 in 10.0 mi West 15.0 mph 21.9 mph N/A   Overcast
9:12 PM 37.4 °F 28.2 °F 21.2 °F 52% 29.98 in 10.0 mi West 16.1 mph 20.7 mph N/A   Overcast
9:31 PM 37.4 °F 26.6 °F 24.8 °F 60% 29.97 in 10.0 mi WNW 21.9 mph 26.5 mph N/A   Overcast
9:51 PM 35.6 °F 24.8 °F 26.6 °F 70% 29.97 in 10.0 mi WNW 19.6 mph 29.9 mph N/A   Mostly Cloudy
10:12 PM 35.6 °F 24.8 °F 26.6 °F 70% 29.98 in 10.0 mi WNW 19.6 mph 28.8 mph N/A   Drizzle
10:31 PM 33.8 °F 22.2 °F 26.6 °F 75% 29.98 in 10.0 mi WNW 20.7 mph 26.5 mph N/A Rain Rain
10:51 PM 33.8 °F 23.2 °F 26.6 °F 75% 29.98 in 7.0 mi WNW 17.3 mph 25.3 mph N/A   Light Drizzle
11:12 PM 33.8 °F 22.8 °F 28.4 °F 81% 29.98 in 5.0 mi WNW 18.4 mph 21.9 mph N/A Snow Light Snow
11:31 PM 32.0 °F 19.8 °F 28.4 °F 87% 29.97 in 4.0 mi NW 20.7 mph 27.6 mph N/A Snow Light Snow
11:51 PM 32.0 °F 21.6 °F 28.4 °F 87% 29.98 in 4.0 mi WNW 15.0 mph - N/A Snow Light Snow